Regional Weather Roundup
Issued by NWS

Home | Current Version | Previous Version | Graphics & Text | Print | Product List | Glossary On
Versions: 1 2 3 4 5 6 7 8 9 10 11 12 13 14 15 16 17 18 19 20 21 22 23 24 25 26 27 28 29 30 31 32 33 34 35 36 37 38 39 40 41 42 43 44 45 46 47 48 49 50
129
ASUS43 KDTX 231401
RWRMI
MICHIGAN HOURLY REGIONAL WEATHER ROUNDUP
NATIONAL WEATHER SERVICE DETROIT/PONTIAC MI
1000 AM EDT SAT JUL 23 2016

NOTE: "FAIR" INDICATES FEW OR NO CLOUDS BELOW 12,000 FEET WITH NO
SIGNIFICANT WEATHER AND/OR OBSTRUCTION TO VISIBILITY.

MIZ047>049-052>055-059>063-066>070-074>076-081>083-231500-
SOUTHEAST LOWER MICHIGAN

CITY           SKY/WX    TMP DP  RH WIND       PRES   REMARKS
ADRIAN         SUNNY     81  71  71 VRB3      30.01F
ALMA           SUNNY     80  73  79 NW3       30.01R
ANN ARBOR      SUNNY     81  69  67 NW8       30.00S
BAD AXE        SUNNY     80  66  63 NW6       30.00R
CARO           SUNNY     80  70  71 W5        29.99R
DETROIT CITY   PTSUNNY   82  68  62 NW7       30.00R
DETROIT        MOSUNNY   83  67  58 N7        30.00S
FLINT          MOSUNNY   84  68  58 VRB3      30.01S
GROSSE ILE     SUNNY     81  67  62 N5        29.98S
HOWELL         MOSUNNY   79  69  69 W5        30.01F

CITY           SKY/WX    TMP DP  RH WIND       PRES   REMARKS
JACKSON        SUNNY     80  70  71 CALM      30.02F
LAMBERTVILLE   SUNNY     83  71  66 CALM      30.00S
LANSING        SUNNY     79  68  69 CALM      30.01F
LAPEER         FAIR      80  68  68 W6        30.01S
MASON          SUNNY     79  67  67 CALM      30.01F
MONROE         SUNNY     81  72  75 CALM      30.00R
MT. CLEMENS    MOSUNNY   82  68  63 W5        29.97S
PONTIAC        MOSUNNY   81  67  62 CALM      30.00F
PORT HOPE        N/A     79  65  62 NW7       29.97R
PORT HURON     SUNNY     81  68  65 SW5       29.98F
TRI CITIES     SUNNY     78  70  76 NW5       30.00R
MIDLAND        FAIR      79  67  66 N3        29.99S
TROY           MOSUNNY   82  66  58 CALM      30.02S
SAGINAW HB     SUNNY     81  68  65 NW3       29.99R
$$
MIZ043>046-050>051-056>058-064>065-071>073-077>080-231500-
SOUTHWEST LOWER MICHIGAN

CITY           SKY/WX    TMP DP  RH WIND       PRES   REMARKS
BATTLE CREEK   SUNNY     78  67  68 CALM      30.01F
BENTON HARBOR  SUNNY     84  73  69 CALM      29.99R HX  90
BIG RAPIDS     MOSUNNY   79  74  84 CALM      30.01R
COLDWATER      SUNNY     76  73  88 CALM      30.01F
FREMONT        FAIR      79  76  92 CALM      29.99S
HOLLAND        SUNNY     83  72  69 CALM      29.99F
GRAND RAPIDS   PTSUNNY   82  70  66 VRB3      30.00S
IONIA          FAIR      79  67  67 NW5       29.99F
KALAMAZOO      SUNNY     81  69  67 CALM      30.00F
LUDINGTON      SUNNY     79  73  82 CALM      29.99R
MARSHALL       SUNNY     79  69  73 CALM      30.00F
MOUNT PLEASANT MOSUNNY   81  70  68 NW3       29.99R
MUSKEGON       MOSUNNY   83  72  69 VRB3      29.99R
SOUTH HAVEN    SUNNY     82  75  79 CALM      29.99S
$$
MIZ016>042-231500-
NORTHERN LOWER MICHIGAN

CITY           SKY/WX    TMP DP  RH WIND       PRES   REMARKS
ALPENA         SUNNY     81  61  50 NW10      29.99R
BEAVER ISLAND  SUNNY     76  63  63 E5        30.00S
BELLAIRE       SUNNY     77  67  72 CALM      30.00R
CADILLAC       SUNNY     82  65  56 N5        30.02R
CHARLEVOIX     SUNNY     76  68  77 CALM      30.02R
FRANKFORT      SUNNY     80  71  71 CALM      29.99S
GAYLORD        SUNNY     80  61  52 N6        30.03R
GRAYLING       SUNNY     80  67  65 CALM      30.02R
HARBOR SPRINGS SUNNY     73  67  81 SW3       30.00R
HOUGHTON LAKE  SUNNY     79  68  69 W3        30.02R
MANISTEE       SUNNY     81  70  69 CALM      29.99R
OSCODA         SUNNY     82  60  47 NW10G17   29.97R
PELLSTON       SUNNY     78  62  57 N3        30.00S
ROGERS CITY    SUNNY     79  60  52 W5        29.99F
TRAVERSE CITY  MOSUNNY   81  68  64 SE3       29.97S
$$
MIZ007>008-015-231500-
EASTERN UPPER MICHIGAN

CITY           SKY/WX    TMP DP  RH WIND       PRES   REMARKS
KINROSS        SUNNY     75  61  61 N7        30.00R
MACKINAC ISLAN SUNNY     73  63  71 SW7       30.00S
NEWBERRY       SUNNY     75  62  64 N3        29.99F HAZE
S. S. MARIE    SUNNY     76  61  59 N3        29.98S
MUNISING         N/A     71  63  75 NE5       29.99S
$$
MIZ004>006-011>014-085-231500-
CENTRAL UPPER MICHIGAN

CITY           SKY/WX    TMP DP  RH WIND       PRES   REMARKS
MANISTIQUE     SUNNY     76  64  66 N7        29.98S
ESCANABA       SUNNY     77  61  57 NE5       29.98S
MENOMINEE      MOSUNNY   76  64  66 E3        30.00S
SAWYER-GWINN   SUNNY     75  57  53 NE10      30.02S
$$
MIZ001>003-009>011-084-231500-
WESTERN UPPER MICHIGAN

CITY           SKY/WX    TMP DP  RH WIND       PRES   REMARKS
IRON MOUNTAIN  SUNNY     76  59  55 N5        30.02R
HOUGHTON       PTSUNNY   72  60  66 E8        30.01R
COPPER HARBOR    N/A     66  58  75 NE3       30.01R
IRONWOOD       SUNNY     75  63  64 E5        29.99F
$$

ABBREVIATIONS USED IN REMARKS
   TC - TEMPERATURE IN CELSIUS
  WCI - WIND CHILL INDEX
   HX - HEAT INDEX
  VSB - VISIBILITY





USA.gov is the U.S. government's official web portal to all federal, state and local government web resources and services.